| time (UTC) | temp F | wind direction | speed knots | gust knots | rain 1hr in | rain 24hr in | rain mn in | humidity % | barometer mb |
| 20260504081551 | 48 | 32 | 13.9 | 21.7 | 0.00 | 0.00 | 0.00 | 54 | 1014.6 |
| 20260504044604 | 57 | 37 | 15.6 | 20.0 | 0.00 | 0.00 | 0.00 | 38 | 1009.3 |
| 20260504043056 | 57 | 39 | 12.2 | 15.6 | 0.00 | 0.00 | 0.00 | 37 | 1009.0 |
| 20260504041552 | 58 | 38 | 10.4 | 16.5 | 0.00 | 0.00 | 0.00 | 36 | 1008.9 |
| 20260504040105 | 58 | 42 | 10.4 | 17.4 | 0.00 | 0.00 | 0.00 | 35 | 1008.6 |
| 20260504034611 | 59 | 41 | 13.9 | 16.5 | 0.00 | 0.00 | 0.00 | 35 | 1008.2 |
| 20260504033056 | 59 | 42 | 12.2 | 19.1 | 0.00 | 0.00 | 0.00 | 35 | 1007.9 |
| 20260504031551 | 60 | 40 | 12.2 | 18.2 | 0.00 | 0.00 | 0.00 | 34 | 1007.6 |
| 20260504030118 | 62 | 37 | 13.0 | 17.4 | 0.00 | 0.00 | 0.00 | 32 | 1007.1 |
| 20260504024555 | 62 | 42 | 8.7 | 12.2 | 0.00 | 0.00 | 0.00 | 28 | 1006.9 |
| 20260504023057 | 63 | 22 | 3.5 | 7.0 | 0.00 | 0.00 | 0.00 | 24 | 1006.7 |
| 20260504021553 | 66 | 18 | 7.0 | 9.6 | 0.00 | 0.00 | 0.00 | 22 | 1006.8 |
| 20260504020105 | 67 | 15 | 7.8 | 13.0 | 0.00 | 0.00 | 0.00 | 21 | 1006.8 |
| 20260504014548 | 69 | 11 | 9.6 | 14.8 | 0.00 | 0.00 | 0.00 | 20 | 1006.9 |
| 20260504013055 | 71 | 352 | 10.4 | 14.8 | 0.00 | 0.00 | 0.00 | 20 | 1006.9 |
| 20260504011553 | 71 | 352 | 12.2 | 16.5 | 0.00 | 0.00 | 0.00 | 20 | 1006.9 |
| 20260504010053 | 72 | 329 | 10.4 | 14.8 | 0.00 | 0.00 | 0.00 | 20 | 1007.0 |
| 20260504004558 | 73 | 345 | 11.3 | 16.5 | 0.00 | 0.00 | 0.00 | 19 | 1007.1 |
| 20260504003056 | 73 | 352 | 8.7 | 16.5 | 0.00 | 0.00 | 0.00 | 19 | 1007.2 |
| 20260504001606 | 73 | 330 | 11.3 | 13.9 | 0.00 | 0.00 | 0.00 | 19 | 1007.3 |
| 20260504000058 | 74 | 11 | 9.6 | 14.8 | 0.00 | 0.00 | 0.00 | 18 | 1007.4 |
| 20260503234556 | 74 | 325 | 9.6 | 15.6 | 0.00 | 0.00 | 0.00 | 18 | 1007.4 |
| 20260503233049 | 73 | 316 | 7.8 | 17.4 | 0.00 | 0.00 | 0.00 | 18 | 1007.5 |
| 20260503231557 | 73 | 324 | 11.3 | 16.5 | 0.00 | 0.00 | 0.00 | 18 | 1007.7 |
| 20260503230058 | 74 | 330 | 11.3 | 19.1 | 0.00 | 0.00 | 0.00 | 18 | 1007.8 |
| 20260503224553 | 74 | 311 | 8.7 | 18.2 | 0.00 | 0.00 | 0.00 | 18 | 1007.8 |
| 20260503223057 | 74 | 352 | 12.2 | 17.4 | 0.00 | 0.00 | 0.00 | 17 | 1008.0 |
| 20260503221559 | 74 | 342 | 9.6 | 17.4 | 0.00 | 0.00 | 0.00 | 18 | 1008.2 |
| 20260503220055 | 73 | 292 | 10.4 | 17.4 | 0.00 | 0.00 | 0.00 | 18 | 1008.5 |
| 20260503214604 | 73 | 257 | 6.1 | 13.0 | 0.00 | 0.00 | 0.00 | 19 | 1008.6 |
| 20260503213053 | 72 | 271 | 9.6 | 20.0 | 0.00 | 0.00 | 0.00 | 18 | 1008.8 |
| 20260503211556 | 72 | 334 | 12.2 | 19.1 | 0.00 | 0.00 | 0.00 | 18 | 1009.2 |
| 20260503210056 | 73 | 288 | 7.8 | 15.6 | 0.00 | 0.00 | 0.00 | 19 | 1009.4 |
| 20260503204603 | 72 | 328 | 7.8 | 14.8 | 0.00 | 0.00 | 0.00 | 20 | 1009.4 |
| 20260503203100 | 71 | 306 | 10.4 | 16.5 | 0.00 | 0.00 | 0.00 | 19 | 1009.9 |
| 20260503201558 | 71 | 322 | 11.3 | 16.5 | 0.00 | 0.00 | 0.00 | 20 | 1010.1 |
| 20260503200059 | 70 | 312 | 6.1 | 18.2 | 0.00 | 0.00 | 0.00 | 21 | 1010.3 |
| 20260503194559 | 71 | 352 | 10.4 | 22.6 | 0.00 | 0.00 | 0.00 | 21 | 1010.5 |
| 20260503193111 | 70 | 323 | 9.6 | 21.7 | 0.00 | 0.00 | 0.00 | 20 | 1010.7 |
| 20260503191553 | 70 | 338 | 9.6 | 15.6 | 0.00 | 0.00 | 0.00 | 20 | 1010.8 |
| 20260503190105 | 70 | 277 | 9.6 | 15.6 | 0.00 | 0.00 | 0.00 | 21 | 1010.9 |
| 20260503184548 | 70 | 277 | 9.6 | 16.5 | 0.00 | 0.00 | 0.00 | 20 | 1011.1 |
| 20260503183059 | 69 | 335 | 7.0 | 14.8 | 0.00 | 0.00 | 0.00 | 21 | 1011.2 |
| 20260503181553 | 70 | 273 | 9.6 | 14.8 | 0.00 | 0.00 | 0.00 | 20 | 1011.5 |
| 20260503180057 | 69 | 292 | 8.7 | 16.5 | 0.00 | 0.00 | 0.00 | 21 | 1011.6 |
| 20260503174551 | 68 | 257 | 2.6 | 14.8 | 0.00 | 0.00 | 0.00 | 24 | 1011.8 |
| 20260503173111 | 68 | 311 | 7.0 | 19.1 | 0.00 | 0.00 | 0.00 | 26 | 1012.0 |
| 20260503171553 | 67 | 289 | 6.1 | 10.4 | 0.00 | 0.00 | 0.00 | 27 | 1012.1 |